CRA718 MROC-MGGT

Flight info

Callsign CRA718
Flight time 1h 10m
Altitude 36000
Route NANJO3U ULAPO DCT TUKOR
Aircraft B752/M-SDE2E3FGHIJ3J4J7RWXY/LB1

Departure

Time 2026-05-04 02:59
Airport Juan Santamaría International Airport (MROC)

Arrival

Time 2026-05-04 04:09
Airport La Aurora International Airport (MGGT)
Time Latitude Longitude Altitude Speed Heading
2026-05-04 02:44 9.99596 -84.21186 2989 ft 0 kts 340°
2026-05-04 02:45 9.99594 -84.21185 2989 ft 1 kts 337°
2026-05-04 02:45 9.99588 -84.21182 2989 ft 1 kts 313°
2026-05-04 02:46 9.99578 -84.21172 2990 ft 2 kts 334°
2026-05-04 02:46 9.99565 -84.21164 2990 ft 2 kts 315°
2026-05-04 02:46 9.99555 -84.21152 2991 ft 2 kts 305°
2026-05-04 02:46 9.99548 -84.21139 2992 ft 2 kts 293°
2026-05-04 02:47 9.99543 -84.21125 2993 ft 2 kts 282°
2026-05-04 02:47 9.99542 -84.21110 2993 ft 2 kts 270°
2026-05-04 02:47 9.99542 -84.21098 2994 ft 0 kts 261°
2026-05-04 02:47 9.99543 -84.21094 2994 ft 0 kts 259°
2026-05-04 02:50 9.99539 -84.21114 2993 ft 7 kts 258°
2026-05-04 02:50 9.99522 -84.21160 2990 ft 4 kts 227°
2026-05-04 02:50 9.99485 -84.21199 2988 ft 9 kts 223°
2026-05-04 02:51 9.99437 -84.21203 2988 ft 8 kts 163°
2026-05-04 02:51 9.99392 -84.21200 2988 ft 5 kts 210°
2026-05-04 02:51 9.99368 -84.21230 2986 ft 6 kts 234°
2026-05-04 02:51 9.99363 -84.21236 2986 ft 0 kts 235°
2026-05-04 02:54 9.99353 -84.21252 2985 ft 7 kts 241°
2026-05-04 02:54 9.99321 -84.21330 2980 ft 15 kts 249°
2026-05-04 02:54 9.99279 -84.21439 2974 ft 17 kts 250°
2026-05-04 02:55 9.99192 -84.21670 2960 ft 4 kts 249°
2026-05-04 02:55 9.99192 -84.21671 2960 ft 0 kts 249°
2026-05-04 02:56 9.99179 -84.21704 2958 ft 10 kts 247°
2026-05-04 02:56 9.99138 -84.21812 2953 ft 21 kts 250°
2026-05-04 02:56 9.99073 -84.21993 2944 ft 30 kts 251°
2026-05-04 02:57 9.99036 -84.22102 2940 ft 0 kts 249°
2026-05-04 02:57 9.99025 -84.22128 2939 ft 9 kts 243°
2026-05-04 02:57 9.98945 -84.22134 2941 ft 12 kts 128°
2026-05-04 02:58 9.98954 -84.22049 2946 ft 16 kts 72°
2026-05-04 02:58 9.99017 -84.21878 2954 ft 45 kts 70°
2026-05-04 02:58 9.99226 -84.21324 2981 ft 120 kts 68°
2026-05-04 02:58 9.99597 -84.20339 3146 ft 172 kts 70°
2026-05-04 02:59 10.00113 -84.19150 3683 ft 201 kts 56°
2026-05-04 02:59 10.01272 -84.18184 4211 ft 238 kts 20°
2026-05-04 02:59 10.02904 -84.18064 5188 ft 240 kts 347°
2026-05-04 02:59 10.04362 -84.18856 6042 ft 248 kts 315°
2026-05-04 03:00 10.05373 -84.20314 6853 ft 257 kts 300°
2026-05-04 03:00 10.06007 -84.22063 7360 ft 279 kts 286°
2026-05-04 03:00 10.06564 -84.24028 7924 ft 296 kts 290°
2026-05-04 03:00 10.07220 -84.26003 8776 ft 300 kts 292°
2026-05-04 03:01 10.07913 -84.28003 9616 ft 305 kts 292°
2026-05-04 03:01 10.08635 -84.30019 10403 ft 310 kts 292°
2026-05-04 03:01 10.09400 -84.32122 10901 ft 327 kts 292°
2026-05-04 03:01 10.10305 -84.34309 11201 ft 346 kts 302°
2026-05-04 03:02 10.11802 -84.36256 11718 ft 353 kts 320°
2026-05-04 03:02 10.13695 -84.37805 12469 ft 355 kts 324°
2026-05-04 03:02 10.15653 -84.39371 13077 ft 364 kts 323°
2026-05-04 03:02 10.17686 -84.40996 13125 ft 373 kts 323°
2026-05-04 03:03 10.19708 -84.42610 13105 ft 361 kts 323°
2026-05-04 03:03 10.21656 -84.44163 13108 ft 359 kts 323°
2026-05-04 03:03 10.23655 -84.45754 13107 ft 362 kts 324°
2026-05-04 03:03 10.25628 -84.47325 13099 ft 361 kts 323°
2026-05-04 03:04 10.27604 -84.48899 13069 ft 361 kts 323°
2026-05-04 03:04 10.29580 -84.50474 13076 ft 361 kts 324°
2026-05-04 03:04 10.31575 -84.52062 13080 ft 363 kts 323°
2026-05-04 03:04 10.33571 -84.53651 13061 ft 361 kts 324°
2026-05-04 03:05 10.35559 -84.55233 13267 ft 369 kts 323°
2026-05-04 03:05 10.37576 -84.56840 14235 ft 365 kts 323°
2026-05-04 03:05 10.39585 -84.58440 14862 ft 370 kts 323°
2026-05-04 03:05 10.41590 -84.60036 15558 ft 372 kts 323°
2026-05-04 03:06 10.43652 -84.61680 16242 ft 375 kts 323°
2026-05-04 03:06 10.45689 -84.63302 16905 ft 377 kts 323°
2026-05-04 03:06 10.47766 -84.64957 17522 ft 381 kts 323°
2026-05-04 03:06 10.49869 -84.66635 18113 ft 385 kts 323°
2026-05-04 03:07 10.51973 -84.68311 18729 ft 388 kts 323°
2026-05-04 03:07 10.54128 -84.70030 19329 ft 391 kts 323°
2026-05-04 03:07 10.56266 -84.71735 19896 ft 395 kts 322°
2026-05-04 03:07 10.58432 -84.73463 20454 ft 398 kts 323°
2026-05-04 03:08 10.60639 -84.75223 20989 ft 402 kts 323°
2026-05-04 03:08 10.62821 -84.76965 21508 ft 405 kts 322°
2026-05-04 03:08 10.65045 -84.78740 22026 ft 408 kts 322°
2026-05-04 03:08 10.67304 -84.80560 22518 ft 412 kts 320°
2026-05-04 03:09 10.69416 -84.82557 23028 ft 416 kts 316°
2026-05-04 03:09 10.71498 -84.84585 23501 ft 419 kts 316°
2026-05-04 03:09 10.73624 -84.86658 23991 ft 423 kts 316°
2026-05-04 03:09 10.75738 -84.88724 24484 ft 426 kts 316°
2026-05-04 03:10 10.77883 -84.90823 24935 ft 430 kts 316°
2026-05-04 03:10 10.80023 -84.92919 25460 ft 431 kts 316°
2026-05-04 03:10 10.82193 -84.95047 25869 ft 436 kts 316°
2026-05-04 03:10 10.84404 -84.97214 26382 ft 437 kts 316°
2026-05-04 03:11 10.86576 -84.99345 26750 ft 442 kts 316°
2026-05-04 03:11 10.88812 -85.01538 27228 ft 444 kts 316°
2026-05-04 03:11 10.91031 -85.03716 27613 ft 448 kts 315°
2026-05-04 03:11 10.93280 -85.05924 28067 ft 450 kts 315°
2026-05-04 03:12 10.95555 -85.08158 28463 ft 453 kts 315°
2026-05-04 03:12 10.97829 -85.10391 28871 ft 456 kts 315°
2026-05-04 03:12 11.00113 -85.12635 29266 ft 459 kts 315°
2026-05-04 03:12 11.02415 -85.14896 29656 ft 462 kts 315°
2026-05-04 03:13 11.04650 -85.17228 30007 ft 464 kts 309°
2026-05-04 03:13 11.06613 -85.19864 30378 ft 466 kts 305°
2026-05-04 03:13 11.08504 -85.22536 30711 ft 469 kts 305°
2026-05-04 03:13 11.10416 -85.25242 31084 ft 470 kts 305°
2026-05-04 03:14 11.12323 -85.27949 31613 ft 468 kts 305°
2026-05-04 03:14 11.14200 -85.30623 31945 ft 467 kts 304°
2026-05-04 03:14 11.16092 -85.33323 31931 ft 466 kts 304°
2026-05-04 03:15 11.19839 -85.38675 31929 ft 463 kts 304°
2026-05-04 03:15 11.23584 -85.44031 31928 ft 464 kts 304°
2026-05-04 03:16 11.27324 -85.49384 31923 ft 463 kts 304°
2026-05-04 03:16 11.31054 -85.54724 31931 ft 463 kts 304°
2026-05-04 03:17 11.34790 -85.60078 31936 ft 462 kts 304°
2026-05-04 03:17 11.38519 -85.65423 31936 ft 463 kts 304°
2026-05-04 03:18 11.42229 -85.70745 31937 ft 462 kts 304°
2026-05-04 03:18 11.45960 -85.76098 31929 ft 463 kts 304°
2026-05-04 03:19 11.49696 -85.81461 31930 ft 463 kts 304°
2026-05-04 03:19 11.53399 -85.86780 31938 ft 462 kts 304°
2026-05-04 03:20 11.57137 -85.92152 31935 ft 463 kts 304°
2026-05-04 03:20 11.60862 -85.97509 31943 ft 462 kts 304°
2026-05-04 03:21 11.64558 -86.02826 31944 ft 463 kts 304°
2026-05-04 03:21 11.68288 -86.08195 31938 ft 463 kts 304°
2026-05-04 03:22 11.72005 -86.13549 31942 ft 462 kts 304°
2026-05-04 03:22 11.75701 -86.18877 31941 ft 462 kts 304°
2026-05-04 03:23 11.79434 -86.24259 31953 ft 462 kts 304°
2026-05-04 03:23 11.83144 -86.29610 31959 ft 462 kts 304°
2026-05-04 03:24 11.86850 -86.34959 31957 ft 462 kts 304°
2026-05-04 03:24 11.90545 -86.40297 31951 ft 462 kts 304°
2026-05-04 03:25 11.94249 -86.45649 31945 ft 462 kts 304°
2026-05-04 03:25 11.97944 -86.50990 31932 ft 462 kts 304°
2026-05-04 03:26 12.01665 -86.56374 31926 ft 462 kts 304°
2026-05-04 03:26 12.05373 -86.61739 31926 ft 462 kts 304°
2026-05-04 03:27 12.09059 -86.67079 31928 ft 462 kts 304°
2026-05-04 03:27 12.12774 -86.72461 31919 ft 462 kts 304°
2026-05-04 03:28 12.16468 -86.77816 31912 ft 463 kts 304°
2026-05-04 03:28 12.20170 -86.83187 31908 ft 463 kts 304°
2026-05-04 03:29 12.23893 -86.88590 31918 ft 463 kts 304°
2026-05-04 03:29 12.27603 -86.93977 31913 ft 464 kts 304°
2026-05-04 03:30 12.31297 -86.99345 31913 ft 464 kts 304°
2026-05-04 03:30 12.35011 -87.04745 31913 ft 464 kts 304°
2026-05-04 03:31 12.38716 -87.10135 31914 ft 464 kts 304°
2026-05-04 03:31 12.42412 -87.15514 31913 ft 463 kts 304°
2026-05-04 03:32 12.46117 -87.20911 31912 ft 463 kts 304°
2026-05-04 03:32 12.49808 -87.26289 31914 ft 463 kts 304°
2026-05-04 03:33 12.53514 -87.31692 31913 ft 462 kts 304°
2026-05-04 03:33 12.57213 -87.37090 31915 ft 462 kts 304°
2026-05-04 03:34 12.60884 -87.42447 31915 ft 461 kts 304°
2026-05-04 03:34 12.64564 -87.47822 31911 ft 462 kts 304°
2026-05-04 03:35 12.68240 -87.53195 31911 ft 461 kts 304°
2026-05-04 03:35 12.71941 -87.58605 31912 ft 460 kts 304°
2026-05-04 03:36 12.75594 -87.63950 31910 ft 460 kts 304°
2026-05-04 03:36 12.79282 -87.69350 31910 ft 459 kts 304°
2026-05-04 03:37 12.82927 -87.74690 31910 ft 459 kts 304°
2026-05-04 03:37 12.86600 -87.80074 31909 ft 458 kts 304°
2026-05-04 03:38 12.90131 -87.85476 31907 ft 458 kts 302°
2026-05-04 03:38 12.93628 -87.90953 31905 ft 457 kts 302°
2026-05-04 03:39 12.97107 -87.96403 31905 ft 457 kts 303°
2026-05-04 03:39 13.00587 -88.01856 31907 ft 457 kts 303°
2026-05-04 03:40 13.03823 -88.07458 31917 ft 458 kts 300°
2026-05-04 03:40 13.07034 -88.13105 31929 ft 457 kts 300°
2026-05-04 03:41 13.10242 -88.18729 31945 ft 456 kts 300°
2026-05-04 03:41 13.13437 -88.24328 31961 ft 456 kts 300°
2026-05-04 03:42 13.16639 -88.29939 31965 ft 456 kts 300°
2026-05-04 03:42 13.19835 -88.35542 31966 ft 455 kts 300°
2026-05-04 03:43 13.23031 -88.41148 31959 ft 456 kts 300°
2026-05-04 03:43 13.26228 -88.46760 31948 ft 456 kts 300°
2026-05-04 03:44 13.29423 -88.52371 31954 ft 454 kts 300°
2026-05-04 03:44 13.32597 -88.57948 31978 ft 455 kts 300°
2026-05-04 03:45 13.35786 -88.63556 31978 ft 453 kts 300°
2026-05-04 03:45 13.38958 -88.69138 31974 ft 454 kts 300°
2026-05-04 03:46 13.42131 -88.74725 31945 ft 454 kts 300°
2026-05-04 03:46 13.45308 -88.80323 31937 ft 453 kts 300°
2026-05-04 03:47 13.48477 -88.85911 31937 ft 453 kts 300°
2026-05-04 03:47 13.51640 -88.91492 31935 ft 453 kts 300°
2026-05-04 03:48 13.54816 -88.97098 31945 ft 453 kts 300°
2026-05-04 03:48 13.57978 -89.02685 31955 ft 453 kts 300°
2026-05-04 03:49 13.61151 -89.08294 31522 ft 456 kts 300°
2026-05-04 03:49 13.62715 -89.11061 31008 ft 447 kts 300°
2026-05-04 03:49 13.64264 -89.13805 30507 ft 436 kts 300°
2026-05-04 03:49 13.65753 -89.16442 30030 ft 426 kts 301°
2026-05-04 03:50 13.67233 -89.19064 29556 ft 420 kts 301°
2026-05-04 03:50 13.68702 -89.21664 29098 ft 420 kts 301°
2026-05-04 03:50 13.70151 -89.24233 28653 ft 421 kts 301°
2026-05-04 03:50 13.71626 -89.26846 28207 ft 420 kts 301°
2026-05-04 03:51 13.73073 -89.29411 27768 ft 416 kts 301°
2026-05-04 03:51 13.74520 -89.31978 27333 ft 412 kts 301°
2026-05-04 03:51 13.75967 -89.34546 26890 ft 409 kts 301°
2026-05-04 03:51 13.77371 -89.37035 26458 ft 408 kts 302°
2026-05-04 03:52 13.78790 -89.39554 26018 ft 407 kts 302°
2026-05-04 03:52 13.80208 -89.42073 25568 ft 404 kts 302°
2026-05-04 03:52 13.81607 -89.44558 25124 ft 402 kts 302°
2026-05-04 03:52 13.83006 -89.47042 24678 ft 400 kts 302°
2026-05-04 03:53 13.84396 -89.49512 24231 ft 398 kts 302°
2026-05-04 03:53 13.85788 -89.51986 23782 ft 396 kts 302°
2026-05-04 03:53 13.87163 -89.54432 23342 ft 393 kts 302°
2026-05-04 03:53 13.88513 -89.56834 22911 ft 391 kts 302°
2026-05-04 03:54 13.89867 -89.59244 22477 ft 388 kts 302°
2026-05-04 03:54 13.91230 -89.61669 22048 ft 387 kts 302°
2026-05-04 03:54 13.92564 -89.64044 21629 ft 385 kts 302°
2026-05-04 03:54 13.93669 -89.66010 21275 ft 383 kts 302°
2026-05-04 03:55 13.94935 -89.68265 20865 ft 382 kts 302°
2026-05-04 03:55 13.96265 -89.70635 20429 ft 379 kts 302°
2026-05-04 03:55 13.97563 -89.72948 20002 ft 378 kts 302°
2026-05-04 03:55 13.98870 -89.75280 19569 ft 376 kts 302°
2026-05-04 03:56 14.00179 -89.77614 19134 ft 374 kts 302°
2026-05-04 03:56 14.01474 -89.79923 18702 ft 372 kts 302°
2026-05-04 03:56 14.02762 -89.82222 18273 ft 370 kts 302°
2026-05-04 03:56 14.04048 -89.84516 17842 ft 370 kts 303°
2026-05-04 03:57 14.05336 -89.86803 17438 ft 367 kts 304°
2026-05-04 03:57 14.06691 -89.89018 17025 ft 365 kts 305°
2026-05-04 03:57 14.08053 -89.91226 16642 ft 362 kts 305°
2026-05-04 03:57 14.09387 -89.93397 16243 ft 361 kts 305°
2026-05-04 03:58 14.12064 -89.97754 15451 ft 356 kts 305°
2026-05-04 03:58 14.13375 -89.99891 15066 ft 354 kts 305°
2026-05-04 03:58 14.14693 -90.02037 14665 ft 352 kts 305°
2026-05-04 03:59 14.15990 -90.04153 14265 ft 350 kts 305°
2026-05-04 03:59 14.17280 -90.06255 13868 ft 347 kts 305°
2026-05-04 03:59 14.18576 -90.08369 13468 ft 345 kts 305°
2026-05-04 03:59 14.19851 -90.10449 13071 ft 343 kts 305°
2026-05-04 04:00 14.21105 -90.12513 12704 ft 340 kts 303°
2026-05-04 04:00 14.22279 -90.14594 12371 ft 338 kts 302°
2026-05-04 04:00 14.23466 -90.16705 12042 ft 337 kts 303°
2026-05-04 04:00 14.24637 -90.18784 11701 ft 336 kts 303°
2026-05-04 04:01 14.25800 -90.20849 11350 ft 334 kts 303°
2026-05-04 04:01 14.26962 -90.22913 11003 ft 331 kts 303°
2026-05-04 04:01 14.28121 -90.24970 10681 ft 329 kts 303°
2026-05-04 04:01 14.29257 -90.26990 10331 ft 327 kts 303°
2026-05-04 04:02 14.30381 -90.28989 10072 ft 316 kts 303°
2026-05-04 04:02 14.31454 -90.30898 10058 ft 298 kts 303°
2026-05-04 04:02 14.32456 -90.32684 10043 ft 279 kts 304°
2026-05-04 04:02 14.33440 -90.34428 9997 ft 286 kts 303°
2026-05-04 04:03 14.34455 -90.36227 9748 ft 292 kts 303°
2026-05-04 04:03 14.35463 -90.38023 9642 ft 285 kts 303°
2026-05-04 04:03 14.36457 -90.39791 9511 ft 285 kts 303°
2026-05-04 04:03 14.37440 -90.41542 9367 ft 279 kts 303°
2026-05-04 04:04 14.38416 -90.43276 9237 ft 282 kts 303°
2026-05-04 04:04 14.39404 -90.45033 9081 ft 279 kts 303°
2026-05-04 04:04 14.40367 -90.46751 8926 ft 273 kts 303°
2026-05-04 04:04 14.41321 -90.48450 8675 ft 276 kts 303°
2026-05-04 04:05 14.42272 -90.50143 8340 ft 271 kts 303°
2026-05-04 04:05 14.43142 -90.51782 8213 ft 240 kts 307°
2026-05-04 04:05 14.44109 -90.52999 8230 ft 203 kts 321°
2026-05-04 04:05 14.45123 -90.53823 8246 ft 166 kts 332°
2026-05-04 04:06 14.46084 -90.54377 8242 ft 157 kts 340°
2026-05-04 04:06 14.47084 -90.54774 8144 ft 160 kts 346°
2026-05-04 04:06 14.48236 -90.55096 7500 ft 188 kts 352°
2026-05-04 04:06 14.49551 -90.55358 6867 ft 184 kts 344°
2026-05-04 04:07 14.50629 -90.55492 7004 ft 138 kts 11°
2026-05-04 04:07 14.51558 -90.55226 6641 ft 146 kts 24°
2026-05-04 04:07 14.52502 -90.54761 6271 ft 154 kts 26°
2026-05-04 04:07 14.53487 -90.54315 5835 ft 154 kts 21°
2026-05-04 04:08 14.54475 -90.53973 5490 ft 146 kts 17°
2026-05-04 04:08 14.55433 -90.53683 5176 ft 140 kts 18°
2026-05-04 04:08 14.56356 -90.53386 5020 ft 138 kts 19°
2026-05-04 04:08 14.57265 -90.53085 4898 ft 133 kts 18°
2026-05-04 04:09 14.58050 -90.52837 4890 ft 87 kts 17°
2026-05-04 04:09 14.58439 -90.52712 4905 ft 30 kts 17°
2026-05-04 04:09 14.58541 -90.52680 4909 ft 13 kts 16°
2026-05-04 04:09 14.58640 -90.52660 4913 ft 10 kts 346°
2026-05-04 04:10 14.58675 -90.52708 4913 ft 7 kts 286°
2026-05-04 04:10 14.58684 -90.52754 4913 ft 5 kts 279°
2026-05-04 04:10 14.58689 -90.52793 4912 ft 4 kts 270°
2026-05-04 04:10 14.58681 -90.52829 4911 ft 5 kts 258°
2026-05-04 04:11 14.58684 -90.52860 4911 ft 3 kts 284°
2026-05-04 04:11 14.58690 -90.52882 4912 ft 2 kts 287°
2026-05-04 04:11 14.58696 -90.52900 4912 ft 2 kts 287°
2026-05-04 04:11 14.58701 -90.52918 4912 ft 2 kts 286°
2026-05-04 04:12 14.58706 -90.52936 4912 ft 2 kts 287°
2026-05-04 04:12 14.58711 -90.52953 4913 ft 2 kts 287°
2026-05-04 04:12 14.58711 -90.52955 4913 ft 0 kts 287°